MPEC 2000-T07: 2000 SA10

The following Minor Planet Electronic Circular may be linked-to from your own Web pages, but must not otherwise be redistributed electronically.


Read MPEC 2000-T06 Read MPEC 2000-T08


M.P.E.C. 2000-T07                                Issued 2000 Oct. 3, 21:30 UT

     The Minor Planet Electronic Circulars contain information on unusual
         minor planets and routine data on comets.  They are published
   on behalf of Commission 20 of the International Astronomical Union by the
          Minor Planet Center, Smithsonian Astrophysical Observatory,
                          Cambridge, MA 02138, U.S.A.

             Prepared using the Tamkin Foundation Computer Network

                              MPC@CFA.HARVARD.EDU
          URL http://cfa-www.harvard.edu/iau/mpc.html  ISSN 1523-6714

                                   2000 SA10

Observations:
     K00S10A* C2000 09 23.32639 01 08 45.83 +20 52 00.4          18.0        704
     K00S10A  C2000 09 23.34201 01 08 45.95 +20 51 38.4          18.2        704
     K00S10A  C2000 09 23.37140 01 08 46.11 +20 50 58.3          19.2        704
     K00S10A  C2000 09 23.38721 01 08 46.22 +20 50 36.5          18.4        704
     K00S10A  C2000 09 24.33081 01 08 59.31 +20 28 27.0          18.0        704
     K00S10A  C2000 09 24.34605 01 08 59.35 +20 28 04.6          17.9        704
     K00S10A  C2000 09 24.36131 01 08 59.45 +20 27 42.7          17.9        704
     K00S10A  C2000 09 24.37785 01 08 59.52 +20 27 18.2          17.5        704
     K00S10A  C2000 09 24.39295 01 08 59.57 +20 26 56.1          17.8        704
     K00S10A  C2000 09 30.24512 01 09 51.58 +17 39 57.9          16.9        704
     K00S10A  C2000 09 30.25974 01 09 51.54 +17 39 28.9          16.8        704
     K00S10A  C2000 09 30.27434 01 09 51.52 +17 39 00.5          17.3        704
     K00S10A  C2000 09 30.28906 01 09 51.48 +17 38 31.3          17.3        704
     K00S10A  C2000 09 30.30361 01 09 51.38 +17 38 02.3          16.6        704
     K00S10A  C2000 10 02.26054 01 09 59.54 +16 30 05.7          17.5        704
     K00S10A  C2000 10 02.27530 01 09 59.44 +16 29 33.7          17.9        704
     K00S10A  C2000 10 02.29072 01 09 59.33 +16 29 00.3          17.6        704
     K00S10A  C2000 10 02.30530 01 09 59.26 +16 28 28.2          17.6        704
     K00S10A  C2000 10 02.32016 01 09 59.19 +16 27 55.7          17.8        704
     K00S10A  C2000 10 03.19666 01 10 01.30 +15 55 43.1          17.9 V      860
     K00S10A  C2000 10 03.20231 01 10 01.04 +15 55 29.4          17.0 V      860
     K00S10A  C2000 10 03.20799 01 10 01.10 +15 55 18.2          17.6 V      860
     K00S10A  C2000 10 03.21597 01 10 01.82 +15 54 37.7          17.6 R      850
     K00S10A  C2000 10 03.23611 01 10 01.62 +15 53 51.5          17.3 R      850
     K00S10A  C2000 10 03.26875 01 10 01.46 +15 52 37.4          17.6 R      850
     K00S10A  C2000 10 03.32361 01 10 01.10 +15 50 31.4          17.4 R      850
     K00S10A  C2000 10 03.34167 01 10 00.99 +15 49 49.6          17.6 R      850

Observer details:
704 Lincoln Laboratory ETS, New Mexico.  Observers M. Blythe, F. Shelly,
    M. Bezpalko, M. Elowitz, R. Huber, L. Manguso.  Measurers J. Stuart,
    R. Sayer, J. B. Evans, H. Viggh.  1.0-m f/2.15 reflector + CCD.
850 Cordell-Lorenz Observatory, Sewanee.  Observer D. T. Durig.  0.3-m f/5.75
    Schmidt-Cassegrain + CCD.
860 Valinhos.  Observer P. R. Holvorcem.  0.36-m f/3.6 Schmidt-Cassegrain
    + CCD.

Orbital elements:
2000 SA10
Epoch 2000 Sept. 13.0 TT = JDT 2451800.5                Spahr
M 311.51484              (2000.0)            P               Q
n   0.45514900     Peri.  247.97457     +0.03899181     -0.99457000
a   1.6737875      Node   200.51076     +0.98790674     +0.05287125
e   0.3546603      Incl.   15.98475     +0.15006637     -0.08963893
P   2.17           H   18.8           G   0.15
From 27 observations 2000 Sept. 23-Oct. 3.

Ephemeris:
2000 SA10                a,e,i = 1.67, 0.35, 16                  q = 1.0802
Date    TT    R. A. (2000) Decl.     Delta      r     Elong.  Phase     V
2000 09 23    01 08.68   +20 59.5    0.422    1.394   153.4    18.8    18.6
2000 10 03    01 10.02   +16 02.9    0.352    1.344   165.5    10.8    17.9
2000 10 13    01 09.91   +08 22.0    0.299    1.296   178.9     0.8    16.9
2000 10 23    01 09.98   -01 54.4    0.265    1.251   163.2    13.3    17.2
2000 11 02    01 12.39   -13 23.2    0.251    1.208   145.9    27.4    17.4
2000 11 12    01 19.43   -23 57.3    0.253    1.170   130.4    40.1    17.7
2000 11 22    01 32.30   -32 15.4    0.266    1.137   117.9    50.1    18.1
2000 12 02    01 51.27   -38 01.6    0.284    1.111   108.9    57.1    18.4
2000 12 12    02 15.86   -41 35.9    0.302    1.092   102.9    61.5    18.6
2000 12 22    02 44.86   -43 21.4    0.319    1.082    99.3    63.8    18.7
2001 01 01    03 17.19   -43 31.5    0.332    1.081    98.0    64.3    18.9
2001 01 11    03 51.83   -42 14.3    0.342    1.088    98.5    63.3    18.9
2001 01 21    04 27.73   -39 32.0    0.351    1.104   100.7    61.1    18.9
2001 01 31    05 04.23   -35 24.8    0.360    1.128   104.1    57.9    18.9
2001 02 10    05 40.72   -30 01.9    0.373    1.159   108.3    53.9    19.0
2001 02 20    06 16.52   -23 43.7    0.394    1.196   112.5    49.8    19.0
2001 03 02    06 51.26   -17 03.4    0.425    1.237   115.8    46.1    19.2
2001 03 12    07 24.57   -10 41.6    0.471    1.282   117.7    43.3    19.4
2001 03 22    07 56.18   -05 09.8    0.532    1.329   117.7    41.6    19.7
2001 04 01    08 26.06   -00 44.3    0.607    1.379   116.1    40.6    20.0
2001 04 11    08 54.23   +02 32.2    0.696    1.429   113.3    40.1    20.4
2001 04 21    09 20.75   +04 46.7    0.797    1.479   109.8    39.7    20.7
2001 05 01    09 45.84   +06 08.8    0.908    1.529   105.8    39.3    21.1
2001 05 11    10 09.63   +06 48.6    1.028    1.579   101.5    38.8    21.4
2001 05 21    10 32.28   +06 55.1    1.155    1.628    97.1    38.1    21.7

Timothy B. Spahr             (C) Copyright 2000 MPC           M.P.E.C. 2000-T07

Read MPEC 2000-T06 Read MPEC 2000-T08


Our Web policy. Index to the CBAT/MPC/ICQ pages.

MPC